Location: North Evanston
(42.0634°N, 87.6976°W)
Time: 13:38:38
(UTC+00:00)

Vanguard 3 - Pass Details

Date: 19 May 2026
Orbit: 507 x 3204 km, 33.3° (Epoch: 6 June)

Event Time Altitude Azimuth Distance (km) Brightness Sun altitude
Rises 15:17:48 0° 189° (S) 5,354 11.5 51.5°
Reaches altitude 10° 15:22:17 10° 174° (S) 4,793 11.5 52.2°
Maximum altitude 15:31:57 21° 132° (SE) 4,644 12.1 53.9°
Drops below altitude 10° 15:43:49 10° 92° (E) 6,051 12.2 55.8°
Sets 15:50:29 0° 80° (E) 7,157 12.3 56.8°
